Barrow, AK

4:38 AM AKST on December 18, 2017 (GMT -0900)
Wiley Post-Will Rogers Memorial

Weather History for PABR - May, 2013

Change the Weather History Date:

Wednesday, May 8, 2013

  Actual Average Record
Temperature  
Mean Temperature 24 °F 17 °F  
Max Temperature 27 °F 22 °F 35 °F (1985)
Min Temperature 20 °F 12 °F -11 °F (1944)
Degree Days  
Heating Degree Days 41 48  
Month to date heating degree days 407 404  
Since 1 July heating degree days 16542 17564  
Cooling Degree Days 0 0  
Month to date cooling degree days 0 0  
Year to date cooling degree days 0 0  
Moisture  
Dew Point 18 °F    
Average Humidity 0    
Maximum Humidity 0    
Minimum Humidity 0    
Precipitation  
Precipitation T in 0.01 in 0.09 in (1940)
Month to date precipitation 0.08 0.04  
Year to date precipitation 0.90 0.56  
Snow  
Snow T in 0.10 in 1.20 in (1940)
Month to date snowfall 2.6 0.8  
Since 1 July snowfall 59.7 35.1  
Snow Depth 6.00 in    
Sea Level Pressure  
Sea Level Pressure 30.19 in    
Wind  
Wind Speed 9 mph (SW)    
Max Wind Speed 16 mph    
Max Gust Speed 17 mph    
Visibility 10 miles    
Events Snow    
T = Trace of Precipitation, MM = Missing Value Source: NWS Daily Summary

Daily Weather History Graph

Daily Weather History Graph

Search for Another Location

Airport or City:

Trip Planner

Search our weather history database for the weather conditions in past years. The results will help you decide how hot, cold, wet, or windy it might be!

Date:

Astronomy

May. 08, 2013 Rise Set
Actual Time 3:27 AM AKDT 1:32 AM AKDT
Civil Twilight Sun does not rise Sun does not rise
Nautical Twilight Sun does not rise Sun does not rise
Astronomical Twilight Sun does not rise Sun does not rise
Moon 4:20 AM AKDT (5/8) 11:31 PM AKDT (5/8)
Length of Visible Light 24h 00m
Length of Day
22h 05m
Waning Crescent, 1% of the Moon is Illuminated
May 8
Waning Crescent
May 9
New
May 17
First Quarter
May 24
Full
May 31
Last Quarter

Hourly Weather History & Observations

Time (AKDT) Temp. Windchill Dew Point Humidity Pressure Visibility Wind Dir Wind Speed Gust Speed Precip Events Conditions
12:11 AM 19.4 °F 10.4 °F 15.8 °F 86% 30.09 in 10.0 mi West 6.9 mph - N/A   Overcast
12:39 AM 19.4 °F 14.3 °F 17.6 °F 93% 30.09 in 10.0 mi WSW 3.5 mph - N/A   Overcast
12:53 AM 19.9 °F 13.4 °F 16.0 °F 85% 30.10 in 10.0 mi WSW 4.6 mph - N/A   Overcast
1:00 AM 19.4 °F 11.5 °F 15.8 °F 86% 30.10 in 10.0 mi SW 5.8 mph - N/A   Overcast
1:53 AM 19.9 °F 10.1 °F 17.1 °F 89% 30.11 in 9.0 mi West 8.1 mph - 0.00 in   Overcast
2:53 AM 19.9 °F 14.9 °F 17.1 °F 89% 30.12 in 10.0 mi West 3.5 mph - N/A   Overcast
3:10 AM 19.4 °F 12.8 °F 17.6 °F 93% 30.11 in 10.0 mi SW 4.6 mph - N/A   Overcast
3:53 AM 19.9 °F 13.4 °F 17.1 °F 89% 30.12 in 10.0 mi SW 4.6 mph - N/A   Overcast
4:53 AM 21.0 °F 13.4 °F 18.0 °F 88% 30.13 in 10.0 mi WSW 5.8 mph - N/A   Overcast
5:30 AM 21.2 °F 10.9 °F 17.6 °F 86% 30.13 in 10.0 mi West 9.2 mph - N/A   Overcast
5:53 AM 21.0 °F 9.9 °F 16.0 °F 81% 30.14 in 9.0 mi NW 10.4 mph - 0.00 in Snow Light Snow
6:21 AM 21.2 °F 12.6 °F 15.8 °F 80% 30.15 in 9.0 mi NW 6.9 mph - 0.00 in Snow Light Snow
6:53 AM 19.9 °F 11.1 °F 16.0 °F 85% 30.16 in 10.0 mi NW 6.9 mph - 0.00 in   Overcast
7:53 AM 19.9 °F 11.1 °F 14.0 °F 78% 30.17 in 10.0 mi WNW 6.9 mph - N/A   Overcast
8:53 AM 21.0 °F 13.4 °F 15.1 °F 78% 30.18 in 10.0 mi WNW 5.8 mph - N/A   Overcast
9:53 AM 21.9 °F 14.5 °F 15.1 °F 75% 30.19 in 10.0 mi West 5.8 mph - N/A   Overcast
10:53 AM 23.0 °F 13.1 °F 15.1 °F 72% 30.20 in 10.0 mi West 9.2 mph - N/A   Overcast
11:53 AM 23.0 °F 13.1 °F 16.0 °F 74% 30.21 in 10.0 mi West 9.2 mph - N/A   Overcast
12:53 PM 23.0 °F 14.7 °F 16.0 °F 74% 30.23 in 10.0 mi West 6.9 mph - N/A   Overcast
1:53 PM 24.1 °F 17.0 °F 17.1 °F 75% 30.24 in 9.0 mi West 5.8 mph - 0.00 in Snow Light Snow
2:53 PM 23.0 °F 15.8 °F 17.1 °F 78% 30.25 in 9.0 mi SW 5.8 mph - 0.00 in Snow Light Snow
3:53 PM 25.0 °F 14.2 °F 17.1 °F 72% 30.25 in 9.0 mi WSW 11.5 mph - 0.00 in Snow Light Snow
4:53 PM 25.0 °F 17.1 °F 18.0 °F 75% 30.26 in 9.0 mi SW 6.9 mph - 0.00 in Snow Light Snow
5:53 PM 26.1 °F 17.6 °F 18.0 °F 71% 30.26 in 9.0 mi SW 8.1 mph - 0.00 in Snow Light Snow
6:53 PM 24.1 °F 14.4 °F 19.9 °F 84% 30.26 in 10.0 mi South 9.2 mph - 0.00 in   Overcast
7:53 PM 25.0 °F 14.8 °F 19.9 °F 81% 30.25 in 10.0 mi South 10.4 mph - N/A   Overcast
8:53 PM 25.0 °F 13.6 °F 19.9 °F 81% 30.25 in 10.0 mi South 12.7 mph - N/A   Overcast
9:53 PM 25.0 °F 13.1 °F 19.9 °F 81% 30.24 in 10.0 mi SSE 13.8 mph - N/A   Overcast
10:12 PM 24.8 °F 12.9 °F 19.4 °F 80% 30.23 in 10.0 mi SSE 13.8 mph - N/A   Overcast
10:37 PM 24.8 °F 12.9 °F 19.4 °F 80% 30.23 in 10.0 mi SSE 13.8 mph - N/A   Overcast
10:53 PM 24.1 °F 12.0 °F 19.9 °F 84% 30.23 in 10.0 mi SSE 13.8 mph - N/A   Overcast
11:07 PM 24.8 °F 12.9 °F 21.2 °F 86% 30.23 in 10.0 mi SSE 13.8 mph - N/A   Overcast
11:39 PM 24.8 °F 12.9 °F 21.2 °F 86% 30.23 in 10.0 mi SSE 13.8 mph - N/A   Overcast
11:53 PM 25.0 °F 13.6 °F 21.0 °F 85% 30.23 in 10.0 mi SSE 12.7 mph - N/A   Overcast